Location: Colle Pacifico
(43.5333°N, 13.3167°E)
Time: 18:45:57
(UTC+00:00)

Cosmos 1125 Rocket - Pass Details

Date: 07 June 2020
Orbit: 758 x 779 km, 74.0° (Epoch: 02 July)

Event Time Altitude Azimuth Distance (km) Brightness Sun altitude
Rises 01:38:59 0° 330° (NNW) 3,226 7.1 -14.9°
Reaches altitude 10° 01:41:32 10° 322° (NW) 2,297 6.2 -14.6°
Maximum altitude 01:46:10 33° 259° (W) 1,256 4.2 -14.1°
Enters shadow 01:48:54 20° 210° (SSW) 1,693 4.7 -13.8°
